Location: Huberhof
(49.2050°N, 7.4980°E)
Time: 00:07:03
(UTC+00:00)

COSMO-SKYMED 1 - Pass Details

Date: 29 October 2020
Orbit: 621 x 623 km, 97.9° (Epoch: 26 November)

Event Time Altitude Azimuth Distance (km) Brightness Sun altitude
Rises 18:37:52 0° 5° (N) 2,916 6.0 -24.1°
Reaches altitude 10° 18:40:15 10° 355° (N) 2,004 5.3 -24.5°
Maximum altitude 18:44:02 30° 295° (WNW) 1,131 4.5 -25.1°
Drops below altitude 10° 18:47:48 10° 234° (SW) 1,991 5.7 -25.7°
Sets 18:50:10 0° 224° (SW) 2,892 6.5 -26.1°
